Home > Weather > Bridgewater > Past weeks

Flag for U.S.A. Weather for the Past 2 Weeks in Bridgewater, Massachusetts, U.S.A.

Now
9 °F

Sunny.


Feels Like: -1 °F
Forecast: 7 / 23 °F
Wind: 6 mph from West

Location: Taunton Municipal Airport

Current Time: Feb 12, 2016 at 9:08:32 AM

Latest Report: Feb 12, 2016 at 7:52 AM


Visibility: 10 mi

Pressure: 30.21 "Hg

Humidity: 52%

Dew point: -5 °F

Location of BridgewaterLocation

Historic Weather in Bridgewater — Graph

°F

Bridgewater Temperature Yesterday

Maximum temperature yesterday: 30 °F (at 12:52 AM)
Minimum temperature yesterday: 13 °F (at 11:52 PM)
Average temperature yesterday: 23 °F

High & Low Weather Summary for the Past Weeks

 TemperatureHumidityPressure
High65 °F (Feb 1, 1:52 PM)96% (Feb 6, 8:52 AM)30.40 "Hg (Feb 6, 8:52 AM)
Low7 °F (Feb 12, 5:52 AM)28% (Feb 2, 2:52 PM)29.36 "Hg (Jan 29, 12:52 PM)
Average35 °F71%29.91 "Hg
* Reported Jan 28 7:52 AM — Feb 12 7:52 AM, Bridgewater, Weather by CustomWeather, © 2016

Note: Actual official high and low records may vary slightly from our data, if they occured in-between our weather recording intervals... More about our weather records

Advertising

Bridgewater Weather History for the Previous 24 Hours

 ConditionsComfort  
Time TempWeatherWind HumidityBarometerVisibility
7:52 AM
Fri, Feb 12
9 °FSunny.6 mph52%30.21 "Hg10 mi
6:52 AM7 °FSunny.5 mph52%30.20 "Hg10 mi
5:52 AM7 °FClear.5 mph52%30.17 "Hg10 mi
4:52 AM8 °FClear.6 mph47%30.16 "Hg10 mi
3:52 AM9 °FClear.8 mph45%30.15 "Hg10 mi
2:52 AM10 °FClear.10 mph43%30.12 "Hg10 mi
1:52 AM11 °FClear.10 mph42%30.11 "Hg10 mi
12:52 AM12 °FClear.15 mph42%30.06 "Hg10 mi
11:52 PM
Thu, Feb 11
13 °FClear.10 mph44%30.03 "Hg10 mi
10:52 PM14 °FClear.13 mph44%30.01 "Hg10 mi
9:52 PM15 °FClear.14 mph42%29.99 "Hg10 mi
8:52 PM15 °FClear.10 mph42%29.97 "Hg10 mi
7:52 PM16 °FClear.17 mph38%29.94 "Hg10 mi
6:52 PM18 °FClear.21 mph34%29.91 "Hg10 mi
5:52 PM21 °FPassing clouds.13 mph41%29.86 "Hg10 mi
3:52 PM26 °FPartly sunny.15 mph31%29.77 "Hg10 mi
2:52 PM26 °FPartly sunny.14 mph29%29.75 "Hg10 mi
1:52 PM26 °FPartly sunny.14 mph40%29.72 "Hg10 mi
12:52 PM27 °FMostly cloudy.13 mph42%29.72 "Hg10 mi
11:52 AM29 °FOvercast.10 mph45%29.72 "Hg10 mi
10:52 AM27 °FMostly cloudy.12 mph61%29.73 "Hg10 mi
9:59 AM26 °FLight snow. Mostly cloudy.7 mph74%29.73 "Hg2 mi
Weather by CustomWeather, © 2016

See weather overviewHow to use our weather pages